Yellowstone, WY

6:01 PM MDT on May 27, 2017 (GMT -0600)
Yellowstone

Weather History for KP60 - February, 2012

Change the Weather History Date:

Monday, February 20, 2012

  Actual Average Record
Temperature  
Mean Temperature 12 °F 16 °F  
Max Temperature 33 °F 29 °F 35 °F (2012)
Min Temperature -9 °F 3 °F -18 °F (2006)
Degree Days  
Heating Degree Days 53 49  
Month to date heating degree days 1021  
Since 1 July heating degree days 7552  
Cooling Degree Days 0 0  
Month to date cooling degree days 0  
Year to date cooling degree days 0  
Moisture  
Dew Point 5 °F    
Average Humidity 65    
Maximum Humidity 84    
Minimum Humidity 37    
Precipitation  
Precipitation 0.13 in 0.04 in 0.55 in (2017)
Month to date precipitation 0.99  
Year to date precipitation 3.10  
Sea Level Pressure  
Sea Level Pressure 30.06 in    
Wind  
Wind Speed 2 mph (North)    
Max Wind Speed 7 mph    
Max Gust Speed 20 mph    
T = Trace of Precipitation, MM = Missing Value Source: NWS Daily Summary

Daily Weather History Graph

Daily Weather History Graph

Search for Another Location

Airport or City:

Trip Planner

Search our weather history database for the weather conditions in past years. The results will help you decide how hot, cold, wet, or windy it might be!

Date:

Astronomy

Feb. 20, 2012 Rise Set
Actual Time 7:14 AM MST 5:56 PM MST
Civil Twilight 6:45 AM MST 6:26 PM MST
Nautical Twilight 6:11 AM MST 7:00 PM MST
Astronomical Twilight 5:37 AM MST 7:34 PM MST
Moon 6:14 AM MST (2/20) 5:04 PM MST (2/20)
Length of Visible Light 11h 41m
Length of Day
10h 42m
Waning Crescent, 1% of the Moon is Illuminated
Feb 20
Waning Crescent
Feb 21
New
Feb 29
First Quarter
Mar 8
Full
Mar 14
Last Quarter

Hourly Weather History & Observations

Time (MST) Temp. Windchill Dew Point Humidity Pressure Visibility Wind Dir Wind Speed Gust Speed Precip Events Conditions
12:56 AM -9.0 °F - -13.0 °F 83% 30.14 in - Calm Calm - N/A   Unknown
1:56 AM -5.1 °F - -9.0 °F 83% 30.09 in - Calm Calm - N/A   Unknown
2:56 AM -2.0 °F - -7.1 °F 79% 30.08 in - Calm Calm - N/A   Unknown
3:56 AM -2.0 °F - -7.1 °F 79% 30.07 in - Calm Calm - N/A   Unknown
4:56 AM -0.9 °F - -5.1 °F 83% 30.07 in - Calm Calm - N/A   Unknown
5:56 AM 1.0 °F - -4.0 °F 79% 30.07 in - Calm Calm - N/A   Unknown
6:56 AM 3.0 °F - -0.9 °F 84% 30.08 in - Calm Calm - N/A   Unknown
7:56 AM 6.1 °F -0.9 °F 1.9 °F 83% 30.12 in - Variable 3.5 mph - N/A   Unknown
8:56 AM 12.0 °F - 8.1 °F 84% 30.13 in - Calm Calm - N/A   Unknown
9:56 AM 23.0 °F 18.4 °F 8.1 °F 53% 30.11 in - Variable 3.5 mph - N/A   Unknown
10:56 AM 24.1 °F 16.0 °F 8.1 °F 51% 30.13 in - Variable 6.9 mph - N/A   Unknown
11:56 AM 27.0 °F 21.6 °F 9.0 °F 47% 30.12 in - Variable 4.6 mph - 0.01 in   Unknown
12:56 PM 28.9 °F 22.8 °F 8.1 °F 41% 30.08 in - Variable 5.8 mph 19.6 mph N/A   Unknown
1:56 PM 32.0 °F 25.6 °F 8.1 °F 37% 30.01 in - Variable 6.9 mph - 0.01 in   Unknown
2:56 PM 33.1 °F 27.7 °F 10.0 °F 38% 30.00 in - Variable 5.8 mph - 0.01 in   Unknown
3:56 PM 26.1 °F - 10.0 °F 51% 30.05 in - Calm Calm - 0.01 in   Unknown
4:56 PM 24.1 °F 18.2 °F 10.0 °F 55% 30.06 in - Variable 4.6 mph - 0.02 in   Unknown
5:56 PM 21.0 °F - 10.0 °F 63% 30.06 in - Calm Calm - 0.01 in   Unknown
6:56 PM 19.9 °F - 10.0 °F 65% 30.06 in - Calm Calm - N/A   Unknown
7:56 PM 23.0 °F 18.4 °F 10.9 °F 60% 30.02 in - Variable 3.5 mph - 0.02 in   Unknown
8:56 PM 19.9 °F - 10.9 °F 68% 30.03 in - Calm Calm - 0.02 in   Unknown
9:56 PM 24.1 °F 19.7 °F 10.9 °F 57% 29.94 in - Variable 3.5 mph - 0.02 in   Unknown
10:56 PM 21.9 °F 17.2 °F 10.9 °F 63% 29.95 in - Variable 3.5 mph - N/A   Unknown
11:56 PM 21.0 °F 12.4 °F 10.0 °F 63% 29.94 in - Variable 6.9 mph 16.1 mph N/A   Unknown